When you browse on this site, cookies collect data to enhance your experience and personalize the content and advertising you see.
Visit our Privacy Policy to learn more. By continuing to use the site, you agree to this use of cookies and data.
  • In Deutschland
  • Länderverzeichnis
  • Für 7 Tage
  • Wassertemperatur
  • Satellitenkarten
  • Wetterkarte
  • Widgets
  • user-avatar
    Anmelden

    Stündliche Wetter Laskowizna

    Heute, 23 Juli, Dienstag

    Zeit Temperatur Niederschläge Wind Luftdruck Luftfeuchtigkeit
    00:00 +15°C° 0 mm 1 m/S 754 mmHg 83%
    01:00 +14°C° 0 mm 1 m/S 754 mmHg 83%
    02:00 +14°C° 0 mm 1 m/S 754 mmHg 83%
    03:00 +14°C° 0 mm 1 m/S 754 mmHg 84%
    04:00 +14°C° 0 mm 1 m/S 754 mmHg 84%
    05:00 +15°C° 0 mm 2 m/S 754 mmHg 82%
    06:00 +16°C° 0 mm 2 m/S 754 mmHg 79%
    07:00 +17°C° 0 mm 3 m/S 754 mmHg 77%
    08:00 +18°C° 0 mm 3 m/S 754 mmHg 74%
    09:00 +18°C° 0 mm 3 m/S 754 mmHg 71%
    10:00 +19°C° 0 mm 4 m/S 754 mmHg 69%
    11:00 +20°C° 0 mm 4 m/S 753 mmHg 66%
    12:00 +21°C° 0 mm 4 m/S 753 mmHg 64%
    13:00 +22°C° 0 mm 4 m/S 753 mmHg 62%
    14:00 +22°C° 0 mm 4 m/S 753 mmHg 64%
    15:00 +22°C° 0 mm 4 m/S 753 mmHg 66%
    16:00 +22°C° 0 mm 4 m/S 753 mmHg 68%
    17:00 +21°C° 0 mm 4 m/S 753 mmHg 73%
    18:00 +20°C° 0 mm 3 m/S 753 mmHg 78%
    19:00 +19°C° 0 mm 3 m/S 752 mmHg 83%
    20:00 +18°C° 0 mm 3 m/S 753 mmHg 87%
    21:00 +17°C° 0 mm 2 m/S 753 mmHg 91%
    22:00 +15°C° 0 mm 2 m/S 753 mmHg 94%
    23:00 +15°C° 0 mm 2 m/S 753 mmHg 95%

    Morgen, 24 Juli, Mittwoch

    Zeit Temperatur Niederschläge Wind Luftdruck Luftfeuchtigkeit
    00:00 +15°C° 0 mm 2 m/S 753 mmHg 95%
    01:00 +14°C° 0 mm 2 m/S 753 mmHg 95%
    02:00 +14°C° 0 mm 2 m/S 753 mmHg 95%
    03:00 +14°C° 0 mm 1 m/S 753 mmHg 95%
    04:00 +14°C° 0 mm 1 m/S 753 mmHg 95%
    05:00 +15°C° 0 mm 2 m/S 753 mmHg 89%
    06:00 +17°C° 0 mm 2 m/S 753 mmHg 83%
    07:00 +18°C° 0 mm 2 m/S 753 mmHg 77%
    08:00 +20°C° 0 mm 2 m/S 753 mmHg 71%
    09:00 +21°C° 0 mm 2 m/S 753 mmHg 65%
    10:00 +24°C° 0 mm 2 m/S 753 mmHg 59%
    11:00 +24°C° 0 mm 2 m/S 753 mmHg 58%
    12:00 +25°C° 0 mm 2 m/S 753 mmHg 57%
    13:00 +26°C° 0 mm 3 m/S 753 mmHg 55%
    14:00 +26°C° 0 mm 3 m/S 753 mmHg 55%
    15:00 +26°C° 0 mm 3 m/S 753 mmHg 56%
    16:00 +26°C° 0 mm 3 m/S 753 mmHg 56%
    17:00 +25°C° 0 mm 2 m/S 753 mmHg 62%
    18:00 +24°C° 0 mm 2 m/S 753 mmHg 68%
    19:00 +22°C° 0 mm 1 m/S 753 mmHg 75%
    20:00 +21°C° 0 mm 1 m/S 753 mmHg 80%
    21:00 +20°C° 0 mm 1 m/S 753 mmHg 84%
    22:00 +19°C° 0 mm 1 m/S 754 mmHg 89%
    23:00 +19°C° 0 mm 1 m/S 754 mmHg 91%

    übermorgen, 25 Juli, Donnerstag

    Zeit Temperatur Niederschläge Wind Luftdruck Luftfeuchtigkeit
    00:00 +18°C° 0 mm 1 m/S 754 mmHg 92%
    01:00 +18°C° 0 mm 1 m/S 754 mmHg 93%
    02:00 +18°C° 0 mm 1 m/S 754 mmHg 93%
    03:00 +16°C° 0 mm 1 m/S 754 mmHg 94%
    04:00 +16°C° 0 mm 1 m/S 754 mmHg 94%
    05:00 +19°C° 0 mm 1 m/S 754 mmHg 89%
    06:00 +20°C° 0 mm 1 m/S 754 mmHg 84%
    07:00 +22°C° 0 mm 1 m/S 754 mmHg 78%
    08:00 +23°C° 0 mm 2 m/S 754 mmHg 72%
    09:00 +24°C° 0 mm 2 m/S 754 mmHg 66%
    10:00 +26°C° 0 mm 2 m/S 754 mmHg 60%
    11:00 +26°C° 0 mm 2 m/S 753 mmHg 57%
    12:00 +27°C° 0 mm 2 m/S 753 mmHg 55%
    13:00 +28°C° 0 mm 2 m/S 753 mmHg 52%
    14:00 +27°C° 0.2 mm 3 m/S 753 mmHg 56%
    15:00 +26°C° 0.2 mm 3 m/S 752 mmHg 60%
    16:00 +26°C° 0.2 mm 4 m/S 752 mmHg 64%
    17:00 +25°C° 0.1 mm 4 m/S 752 mmHg 69%
    18:00 +22°C° 0.1 mm 3 m/S 752 mmHg 74%
    19:00 +21°C° 0.1 mm 3 m/S 752 mmHg 79%
    20:00 +20°C° 0 mm 3 m/S 752 mmHg 82%
    21:00 +19°C° 0 mm 3 m/S 752 mmHg 86%
    22:00 +17°C° 0 mm 3 m/S 752 mmHg 90%
    23:00 +17°C° 0 mm 3 m/S 752 mmHg 91%

    26 Juli, Freitag

    Zeit Temperatur Niederschläge Wind Luftdruck Luftfeuchtigkeit
    00:00 +16°C° 0 mm 3 m/S 752 mmHg 93%
    01:00 +16°C° 0 mm 3 m/S 752 mmHg 95%
    02:00 +16°C° 0 mm 3 m/S 752 mmHg 93%
    03:00 +16°C° 0 mm 3 m/S 752 mmHg 92%
    04:00 +16°C° 0 mm 3 m/S 752 mmHg 91%
    05:00 +17°C° 0 mm 4 m/S 752 mmHg 87%
    06:00 +18°C° 0 mm 4 m/S 752 mmHg 84%
    07:00 +19°C° 0 mm 5 m/S 752 mmHg 80%
    08:00 +19°C° 0 mm 5 m/S 752 mmHg 78%
    09:00 +20°C° 0 mm 5 m/S 752 mmHg 75%
    10:00 +20°C° 0 mm 5 m/S 752 mmHg 73%
    11:00 +21°C° 0 mm 5 m/S 752 mmHg 71%
    12:00 +22°C° 0 mm 4 m/S 752 mmHg 69%
    13:00 +22°C° 0 mm 4 m/S 752 mmHg 68%
    14:00 +22°C° 0.1 mm 5 m/S 751 mmHg 69%
    15:00 +22°C° 0.1 mm 5 m/S 751 mmHg 71%
    16:00 +22°C° 0.1 mm 5 m/S 751 mmHg 73%
    17:00 +21°C° 0 mm 4 m/S 751 mmHg 77%
    18:00 +21°C° 0 mm 3 m/S 751 mmHg 81%
    19:00 +20°C° 0 mm 3 m/S 751 mmHg 85%
    20:00 +19°C° 0 mm 3 m/S 752 mmHg 88%
    21:00 +18°C° 0 mm 2 m/S 752 mmHg 91%
    22:00 +17°C° 0 mm 2 m/S 752 mmHg 94%
    23:00 +18°C° 0 mm 2 m/S 752 mmHg 94%

    27 Juli, Samstag

    Zeit Temperatur Niederschläge Wind Luftdruck Luftfeuchtigkeit
    00:00 +18°C° 0 mm 3 m/S 752 mmHg 94%
    01:00 +18°C° 0 mm 3 m/S 752 mmHg 94%
    02:00 +17°C° 0 mm 3 m/S 752 mmHg 95%
    03:00 +17°C° 0 mm 3 m/S 752 mmHg 96%
    04:00 +17°C° 0 mm 3 m/S 752 mmHg 97%
    05:00 +18°C° 0 mm 3 m/S 752 mmHg 91%
    06:00 +20°C° 0 mm 4 m/S 752 mmHg 86%
    07:00 +21°C° 0 mm 4 m/S 752 mmHg 80%
    08:00 +23°C° 0 mm 4 m/S 752 mmHg 74%
    09:00 +25°C° 0 mm 4 m/S 752 mmHg 68%
    10:00 +27°C° 0 mm 4 m/S 752 mmHg 62%
    11:00 +28°C° 0 mm 5 m/S 752 mmHg 59%
    12:00 +29°C° 0 mm 5 m/S 752 mmHg 57%
    13:00 +29°C° 0 mm 5 m/S 752 mmHg 54%
    14:00 +29°C° 0 mm 4 m/S 751 mmHg 54%
    15:00 +29°C° 0 mm 4 m/S 751 mmHg 53%
    16:00 +29°C° 0 mm 4 m/S 751 mmHg 53%
    17:00 +28°C° 0 mm 4 m/S 751 mmHg 61%
    18:00 +26°C° 0 mm 3 m/S 751 mmHg 68%
    19:00 +25°C° 0 mm 3 m/S 751 mmHg 76%
    20:00 +24°C° 0 mm 3 m/S 752 mmHg 80%
    21:00 +23°C° 0 mm 2 m/S 752 mmHg 83%
    22:00 +21°C° 0 mm 2 m/S 752 mmHg 87%
    23:00 +20°C° 0 mm 2 m/S 752 mmHg 89%

    28 Juli, Sonntag

    Zeit Temperatur Niederschläge Wind Luftdruck Luftfeuchtigkeit
    00:00 +20°C° 0 mm 2 m/S 752 mmHg 90%
    01:00 +20°C° 0 mm 2 m/S 752 mmHg 92%
    02:00 +19°C° 0 mm 2 m/S 752 mmHg 92%
    03:00 +19°C° 0 mm 2 m/S 752 mmHg 92%
    04:00 +18°C° 0 mm 2 m/S 752 mmHg 93%
    05:00 +20°C° 0 mm 2 m/S 752 mmHg 86%
    06:00 +23°C° 0 mm 2 m/S 752 mmHg 80%
    07:00 +24°C° 0 mm 2 m/S 752 mmHg 73%
    08:00 +26°C° 0 mm 2 m/S 752 mmHg 68%
    09:00 +28°C° 0 mm 3 m/S 752 mmHg 62%
    10:00 +29°C° 0 mm 3 m/S 752 mmHg 57%
    11:00 +29°C° 0 mm 3 m/S 752 mmHg 55%
    12:00 +30°C° 0 mm 3 m/S 752 mmHg 53%
    13:00 +30°C° 0 mm 3 m/S 752 mmHg 51%
    14:00 +30°C° 0 mm 3 m/S 752 mmHg 51%
    15:00 +30°C° 0 mm 3 m/S 751 mmHg 51%
    16:00 +30°C° 0 mm 3 m/S 751 mmHg 51%
    17:00 +29°C° 0 mm 3 m/S 751 mmHg 58%
    18:00 +27°C° 0 mm 2 m/S 751 mmHg 65%
    19:00 +26°C° 0 mm 2 m/S 751 mmHg 71%
    20:00 +25°C° 0 mm 2 m/S 752 mmHg 75%
    21:00 +24°C° 0 mm 2 m/S 752 mmHg 78%
    22:00 +23°C° 0 mm 2 m/S 752 mmHg 81%
    23:00 +21°C° 0 mm 2 m/S 752 mmHg 84%
    Mehr zeigen